Location: ????????
(55.6333°N, 37.7000°E)
Time: 02:35:11
(UTC+00:00)

Cosmos 1315 Rocket - Pass Details

Date: 19 May 2025
Orbit: 498 x 525 km, 81.2° (Epoch: 14 June)

Event Time Altitude Azimuth Distance (km) Brightness Sun altitude
Exits shadow 19:20:23 10° 182° (S) 1,784 4.9 -9.9°
Reaches altitude 10° 19:20:26 10° 182° (S) 1,768 4.9 -9.9°
Maximum altitude 19:24:17 65° 100° (E) 584 2.8 -10.1°
Drops below altitude 10° 19:28:09 10° 19° (NNE) 1,775 6.1 -10.4°
Sets 19:30:18 0° 17° (NNE) 2,665 7.1 -10.5°
